Wetbulb
54.97 54.42 54.73 55.11 55.01 54.80 54.68 54.38 54.53 54.53 54.28 53.81 53.34 53.17 53.09 52.85 52.77 53.25 53.82 54.43 54.42 54.60 54.90 55.22 55.32 55.31 55.21 55.08 55.01 55.04 55.21 55.35 55.68 55.98 56.10 56.08 56.03 56.21 56.44 56.60 56.99 57.34 57.70 58.06 58.59 59.19 59.70 59.97 60.17 60.49 60.42 59.67 59.57 59.52 59.39 58.80 59.03 58.88 58.75 58.61 58.16 58.52 59.34 60.09 60.27 60.89 61.47 61.48 60.04
53.43 53.41 53.63 54.15 54.03 53.94 53.77 53.69 53.88 53.85 53.86 53.74 53.58 53.28 53.18 53.14 53.04 53.22 53.76 54.17 54.58 54.86 55.01 55.01 54.85 54.75 54.71 54.70 54.79 54.79 54.79 54.63 54.85 54.96 54.93 54.75 54.85 55.08 55.22 55.32 55.91 56.36 56.64 56.56 57.01 57.74 58.28 58.09 58.16 58.85 59.34 59.11 59.34 59.20 59.11 59.56 59.88 58.66 57.30 56.76 55.90 56.31 57.07 57.39 57.53 58.19 58.82 58.60 57.43
52.31 52.38 52.39 52.42 52.52 52.76 52.95 52.92 52.86 52.84 53.07 53.51 53.91 54.04 53.97 53.93 54.09 54.17 54.36 54.50 54.54 54.48 54.50 54.42 54.34 54.40 54.47 54.28 54.37 54.27 54.12 53.85 53.90 53.82 53.65 53.48 53.70 54.07 54.48 54.89 55.30 55.67 55.94 55.71 56.17 57.16 57.84 57.48 57.53 58.11 58.57 58.43 58.39 57.84 57.25 57.48 57.84 56.93 55.90 55.85 54.95 54.90 55.13 55.13 55.26 55.62 55.89 56.12 55.79
51.83 51.87 51.74 51.69 51.93 52.15 52.45 52.75 52.70 52.80 53.22 53.84 53.90 54.18 54.48 54.77 54.78 54.74 54.50 54.21 54.06 54.02 53.97 53.81 53.77 54.01 54.19 54.04 53.86 53.66 53.36 53.40 53.36 53.32 53.60 54.28 54.60 54.83 55.10 55.56 55.88 55.98 56.03 56.35 57.11 57.48 57.61 57.34 57.03 57.07 57.21 57.21 56.80 56.12 55.49 55.44 55.39 54.71 53.85 53.31 53.22 53.22 53.22 53.00 53.18 53.41 53.72 53.99 53.67
51.63 51.78 51.73 51.69 51.98 52.29 52.55 52.84 52.98 53.19 53.45 53.79 53.97 54.14 54.22 54.21 54.16 54.02 53.92 53.99 53.80 53.70 53.53 53.32 53.58 53.69 53.76 53.67 53.29 53.03 52.90 53.03 53.84 54.28 54.50 54.66 54.80 55.08 55.26 55.45 55.51 55.43 55.48 55.52 55.62 55.71 55.71 55.57 55.30 55.13 54.99 54.67 54.58 54.36 54.13 54.17 53.49 52.59 51.73 51.32 51.28 51.32 51.32 51.09 50.96 51.05 51.28 51.41 50.87
51.62 51.88 52.09 52.30 52.60 52.84 53.06 53.25 53.28 53.26 53.31 53.52 53.41 53.26 53.32 53.63 53.60 53.54 53.51 53.39 53.08 52.83 52.75 53.00 53.23 53.28 53.20 53.03 52.81 52.81 53.17 53.72 54.22 54.51 54.45 53.99 53.96 54.15 54.20 54.30 54.36 54.33 54.35 54.39 54.53 54.57 54.57 54.39 53.81 53.36 53.04 52.95 52.86 52.86 52.86 52.76 52.18 51.36 50.50 49.74 49.56 49.56 49.51 49.19 49.06 49.42 49.74 49.78 49.10
52.00 52.14 52.27 52.48 52.73 52.86 52.89 53.07 53.09 53.14 53.20 53.31 52.99 52.73 52.66 52.78 52.86 52.81 52.72 52.86 52.60 52.40 52.42 52.69 52.77 52.71 52.55 52.45 52.66 53.00 53.34 53.56 53.73 53.68 53.50 53.18 53.05 53.00 52.95 53.02 53.11 53.18 53.21 53.35 53.35 53.26 53.21 53.03 52.40 51.95 51.73 51.72 51.59 51.77 51.95 51.86 51.18 50.32 49.28 48.38 48.38 48.51 48.56 48.47 48.42 48.65 48.65 48.24 47.70
51.89 51.85 51.84 51.95 52.15 52.32 52.53 52.84 52.93 53.00 53.03 53.03 52.73 52.58 52.56 52.53 52.52 52.42 52.23 52.11 51.83 51.76 51.90 52.14 52.19 52.25 52.30 52.21 52.24 52.44 52.68 52.88 52.85 52.73 52.57 52.45 52.17 52.12 52.16 52.26 52.19 52.17 52.28 52.38 52.39 52.26 52.13 51.99 51.45 51.05 50.73 50.59 50.55 50.69 50.77 50.63 49.96 49.06 48.06 47.25 47.25 47.43 47.75 47.97 48.15 48.15 47.97 47.47 46.89
51.21 51.32 51.39 51.53 51.68 51.87 52.10 52.34 52.42 52.50 52.35 52.29 52.12 52.05 52.03 52.08 51.96 51.69 51.38 51.01 51.06 51.15 51.20 51.25 51.51 51.77 51.80 51.57 51.13 51.21 51.58 52.17 52.10 52.08 52.10 52.10 51.82 51.63 51.53 51.53 51.50 51.51 51.57 51.63 51.69 51.52 51.30 51.04 50.59 50.28 49.96 49.83 49.78 49.87 49.82 49.46 48.60 47.88 47.16 46.70 46.70 46.84 47.16 47.56 47.61 47.52 47.29 46.89 46.25
50.79 50.94 51.09 51.17 51.27 51.49 51.66 51.73 51.83 51.77 51.57 51.38 51.14 51.11 51.21 51.47 51.19 50.72 50.53 50.49 50.67 50.63 50.59 50.54 50.86 51.06 51.01 50.63 50.41 50.79 51.40 51.78 51.69 51.67 51.73 51.79 51.56 51.26 50.95 50.98 50.99 50.87 50.89 51.16 51.12 51.05 50.74 50.40 50.00 49.82 49.73 49.64 49.60 49.46 49.19 48.78 47.97 47.29 46.89 46.66 46.57 46.43 46.43 46.71 46.89 46.75 46.53 46.08 45.58
50.39 50.55 50.66 50.66 50.75 51.00 51.13 51.00 51.05 50.94 50.66 50.37 50.17 50.23 50.25 50.35 50.09 50.01 50.10 50.27 50.20 50.02 49.92 50.07 50.43 50.49 50.32 50.11 50.59 51.14 51.54 51.59 51.40 51.28 51.25 51.17 51.12 50.89 50.61 50.41 50.27 50.06 50.19 50.70 50.64 50.43 50.13 49.84 49.58 49.45 49.45 49.50 49.32 48.91 48.50 48.01 47.38 46.80 46.44 46.26 46.03 45.72 45.58 45.58 45.85 45.85 45.62 45.17 44.90
49.96 50.02 50.12 50.06 50.15 50.32 50.42 50.07 50.04 49.89 49.64 49.43 49.40 49.42 49.26 48.99 49.17 49.57 49.92 49.88 49.57 49.43 49.50 49.61 49.47 49.24 49.27 49.83 50.57 50.87 50.92 50.89 50.69 50.52 50.35 50.31 50.24 50.07 49.81 49.59 49.37 49.15 49.23 49.95 50.05 49.90 49.61 49.19 48.76 48.59 48.59 48.59 48.46 48.15 47.79 47.25 46.76 46.22 45.86 45.68 45.45 45.18 44.82 44.73 44.86 44.86 44.86 44.81 44.68
49.52 49.62 49.63 49.64 49.73 49.69 49.67 49.39 49.19 48.98 48.82 48.65 48.62 48.59 48.50 48.41 48.99 49.39 49.47 49.07 48.71 48.65 48.77 48.88 48.75 48.78 49.16 49.94 50.14 50.09 50.05 50.00 49.79 49.62 49.46 49.35 49.30 49.09 48.84 48.66 48.62 48.59 48.69 49.13 49.36 49.29 48.91 48.35 47.73 47.33 47.07 47.02 47.07 46.98 46.76 46.35 46.00 45.68 45.37 45.10 44.83 44.52 44.29 44.16 44.29 44.28 44.32 44.18 44.23
49.33 49.34 49.35 49.27 49.22 49.27 49.15 48.87 48.76 48.59 48.39 48.18 48.01 47.96 48.06 48.32 48.89 48.93 48.58 48.04 47.86 48.15 48.39 48.47 48.63 49.09 49.49 49.69 49.47 49.38 49.29 49.30 49.35 49.40 49.41 49.37 49.24 48.86 48.40 48.19 48.28 48.25 48.13 48.06 48.23 48.07 47.72 47.24 46.76 46.27 45.91 45.73 45.60 45.60 45.51 45.29 45.10 44.88 44.60 44.29 43.97 43.84 43.75 43.71 43.79 43.74 43.51 43.28 43.41
49.01 49.06 49.06 49.01 48.80 48.76 48.73 48.37 48.46 48.38 48.13 47.78 47.65 47.70 47.87 48.14 48.69 48.39 47.82 47.59 47.75 47.96 48.16 48.07 48.44 48.88 49.19 49.09 48.92 48.75 48.71 48.87 49.07 49.04 48.97 48.90 48.65 48.23 47.85 47.61 47.61 47.57 47.40 47.05 46.88 46.79 46.58 46.27 45.96 45.60 45.15 44.79 44.61 44.52 44.48 44.39 44.29 44.15 43.97 43.79 43.60 43.46 43.37 43.33 43.37 43.24 43.05 42.87 42.87
48.68 48.73 48.72 48.62 48.42 48.30 48.18 48.07 48.20 48.08 47.78 47.47 47.43 47.34 47.47 47.69 48.12 47.85 47.50 47.75 48.00 48.11 48.14 48.08 48.11 48.14 48.29 48.62 48.76 48.63 48.51 48.59 48.11 47.72 47.44 47.28 46.99 46.69 46.44 46.31 46.53 46.57 46.44 46.09 45.83 45.61 45.34 45.29 45.07 44.80 44.43 44.07 43.93 43.84 43.79 43.84 43.74 43.70 43.60 43.47 43.46 43.28 43.23 43.19 43.10 42.92 42.83 42.74 42.47
48.08 48.17 48.20 48.16 48.00 47.79 47.67 47.60 47.68 47.55 47.33 47.07 47.02 47.02 46.98 47.16 47.50 47.76 48.06 48.51 48.25 48.23 48.16 47.90 47.76 47.68 47.67 47.88 47.98 47.91 47.65 47.28 46.11 45.35 45.05 45.13 44.87 44.61 44.38 44.42 44.82 45.04 45.08 44.77 44.59 44.41 44.23 44.18 44.00 43.86 43.63 43.45 43.35 43.30 43.34 43.38 43.33 43.24 43.20 43.19 43.10 43.05 43.05 43.15 42.83 42.47 42.24 42.34 41.97
47.53 47.56 47.52 47.56 47.48 47.36 47.24 47.06 46.98 46.93 46.76 46.71 46.67 46.67 46.80 46.84 47.20 47.71 48.25 48.53 47.93 47.87 47.94 47.65 47.68 47.76 47.58 47.32 46.93 46.71 46.25 45.21 43.75 43.18 43.08 43.08 42.95 42.68 42.48 42.38 42.70 42.92 43.13 43.34 43.56 43.65 43.60 43.47 43.20 43.11 43.02 42.92 42.87 42.90 42.90 42.85 42.75 42.66 42.57 42.52 42.43 42.43 42.34 42.43 42.12 41.84 41.66 41.79 41.56
46.83 46.87 46.92 46.96 46.92 46.97 46.88 46.84 46.58 46.40 46.31 46.31 46.31 46.31 46.49 46.71 47.14 47.48 47.55 47.45 47.48 47.14 46.89 46.89 47.09 47.09 46.87 46.34 45.54 45.29 45.04 44.06 42.93 42.35 42.07 41.76 41.54 41.32 41.13 41.03 41.02 41.32 41.76 42.11 42.37 42.64 42.82 42.92 42.78 42.60 42.54 42.48 42.42 42.28 42.27 42.23 42.08 41.98 41.85 41.80 41.70 41.57 41.48 41.39 41.26 41.21 41.25 41.21 41.07
46.22 46.27 46.35 46.40 46.44 46.44 46.44 46.40 46.18 46.05 45.87 45.83 45.83 45.83 45.96 46.44 46.83 46.82 46.60 46.29 46.83 46.79 46.45 46.24 45.86 45.56 45.30 44.79 43.93 43.72 43.63 43.19 42.45 41.82 41.31 40.85 40.54 40.28 40.28 40.28 40.18 40.30 40.60 40.99 41.39 41.75 42.03 42.31 42.26 42.20 42.09 41.99 41.84 41.73 41.55 41.51 41.36 41.22 41.08 40.95 40.85 40.76 40.62 40.58 40.58 40.71 40.76 40.66 40.76
45.83 45.92 46.00 46.05 46.09 46.00 45.92 45.92 45.83 45.57 45.39 45.34 45.21 45.25 45.43 45.87 46.00 45.83 45.65 45.57 45.77 46.07 46.07 45.85 45.09 44.53 43.93 43.20 42.50 42.14 41.95 41.80 41.28 40.79 40.40 40.12 39.90 39.81 39.81 39.81 39.71 39.70 39.99 40.53 41.23 41.69 41.88 42.01 42.00 41.98 41.83 41.77 41.45 41.30 41.07 40.88 40.66 40.43 40.25 40.25 40.18 40.09 40.14 40.14 40.13 40.31 40.53 40.72 40.94
45.65 45.78 45.78 45.70 45.61 45.48 45.35 45.17 44.95 44.73 44.60 44.55 44.50 44.45 44.40 44.45 44.62 44.63 44.69 44.74 44.83 44.96 45.00 44.87 44.57 43.84 42.97 42.04 41.42 40.87 40.62 40.46 40.11 39.84 39.65 39.55 39.37 39.54 39.62 39.56 39.14 39.09 39.41 40.33 40.83 41.18 41.54 41.80 41.79 41.73 41.58 41.35 41.07 40.93 40.75 40.43 40.14 39.86 39.76 39.76 39.74 39.78 39.83 39.98 40.15 40.33 40.55 40.73 40.76
45.57 45.48 45.39 45.22 45.22 45.17 45.00 44.47 43.99 43.77 43.68 43.62 43.61 43.51 43.37 43.18 43.23 43.23 43.37 43.39 43.52 43.52 43.44 43.44 43.42 42.90 42.07 41.27 40.60 40.17 39.78 39.42 39.04 38.86 38.82 38.68 38.35 38.44 38.80 39.57 39.42 39.44 39.79 40.50 40.60 40.65 40.68 40.93 41.23 41.26 41.11 40.87 40.56 40.43 40.35 40.12 39.77 39.52 39.40 39.43 39.43 39.43 39.53 39.82 39.91 40.18 40.38 40.43 40.04
45.22 45.05 44.96 44.96 44.65 44.39 44.08 43.68 43.33 43.07 42.93 42.83 42.86 42.75 42.56 42.33 42.29 42.20 42.15 42.15 42.15 42.30 42.44 42.42 42.31 41.75 41.13 40.60 40.51 40.39 39.99 39.28 38.99 39.08 39.22 38.91 39.25 39.44 39.62 40.08 40.04 40.16 40.36 40.72 40.85 40.83 40.65 40.63 40.65 40.81 40.85 40.68 40.37 40.16 40.07 39.87 39.67 39.51 39.35 39.29 39.24 39.25 39.35 39.55 39.49 39.63 39.70 39.44 38.98
44.79 44.66 44.53 44.30 43.99 43.77 43.45 43.14 42.83 42.52 42.42 42.33 42.27 42.17 42.02 41.89 41.66 41.48 41.39 41.62 42.17 43.04 43.47 42.96 42.32 41.63 41.10 40.68 40.77 40.83 40.79 40.37 40.29 40.32 40.26 39.72 40.29 40.30 40.14 40.00 39.89 39.94 40.29 41.09 41.88 42.13 42.02 41.74 41.19 40.78 40.56 40.35 40.15 40.01 39.87 39.76 39.70 39.59 39.45 39.33 39.33 39.29 39.28 39.26 39.12 39.12 38.92 38.61 38.30
44.23 44.18 44.00 43.86 43.59 43.36 43.13 42.81 42.59 42.45 42.18 42.04 41.81 41.58 41.40 41.31 41.12 41.08 41.18 41.68 42.84 43.47 43.39 42.52 42.02 41.86 41.65 41.20 40.90 40.87 40.88 40.88 40.66 40.45 40.32 40.23 40.21 39.94 39.59 39.48 39.52 39.58 40.12 41.34 42.16 42.49 42.63 42.76 42.36 41.56 40.47 39.68 39.77 39.71 39.61 39.46 39.64 39.68 39.57 39.43 39.07 38.44 37.86 37.47 37.50 37.68 37.77 37.66 37.35
43.62 43.48 43.47 43.46 43.18 42.90 42.63 42.45 42.40 42.22 41.90 41.59 41.17 40.81 40.63 40.59 40.63 40.82 41.21 41.85 42.67 42.99 42.73 42.03 41.76 41.84 41.83 41.01 40.60 40.31 40.20 40.06 40.00 40.08 40.18 40.12 39.93 39.60 39.30 38.95 39.00 39.31 40.09 41.44 42.17 42.54 42.76 42.98 42.85 42.11 40.85 39.18 38.98 38.96 39.09 39.13 39.36 39.16 38.83 38.30 37.54 36.70 36.03 35.70 36.08 36.53 36.66 36.24 35.83
43.16 43.02 42.88 42.92 42.55 42.23 42.00 41.91 41.68 41.50 41.27 40.99 40.59 40.41 40.38 40.43 40.66 40.86 41.32 42.06 42.42 42.28 41.87 41.43 41.36 41.29 41.16 40.73 40.35 40.02 39.84 39.90 39.98 40.12 40.14 39.97 39.72 39.33 38.91 38.61 38.52 39.18 40.33 41.67 42.17 42.58 42.80 42.93 42.68 42.21 41.39 39.80 38.31 37.97 38.17 38.31 38.28 37.72 37.14 36.70 36.26 35.88 35.52 35.34 35.50 35.64 35.69 35.42 34.96
42.88 42.60 42.37 42.11 41.79 41.47 41.24 41.06 40.88 40.83 40.74 40.69 40.66 40.69 40.79 40.71 40.57 40.66 41.12 41.84 41.79 41.49 41.05 40.77 40.87 40.77 40.48 40.24 40.15 39.98 39.82 39.54 39.67 39.67 39.59 39.45 39.22 39.04 38.69 38.31 38.49 39.43 40.81 41.94 42.30 42.61 42.71 42.72 42.47 42.22 41.79 40.90 38.76 37.71 37.29 37.18 36.96 36.86 36.73 36.51 36.27 35.99 35.56 35.13 35.00 35.00 34.96 34.81 34.42
42.22 42.00 41.55 41.21 41.03 40.79 40.56 40.38 40.38 40.52 40.70 40.72 40.81 40.74 40.61 40.79 40.58 40.66 40.92 41.18 41.33 41.16 40.96 40.82 40.64 40.36 40.05 39.87 39.79 39.62 39.53 39.38 39.46 39.43 39.25 38.97 38.93 38.95 39.05 39.04 39.15 39.95 41.02 42.16 42.47 42.65 42.70 42.58 42.37 42.04 41.61 40.94 38.70 37.08 36.29 36.39 36.31 36.48 36.56 36.53 36.18 35.75 35.30 35.05 34.81 34.63 34.59 34.52 34.19
41.56 41.21 40.77 40.43 40.34 40.21 40.12 40.02 40.20 40.35 40.42 40.50 40.43 40.35 40.30 40.14 40.04 40.14 40.39 40.77 41.17 41.44 41.40 40.99 40.53 40.12 39.94 39.85 39.59 39.51 39.46 39.49 39.43 39.38 39.27 39.15 39.48 39.38 39.19 39.33 39.39 40.14 41.31 42.46 42.64 42.77 42.73 42.60 42.22 41.80 41.20 40.45 38.49 36.43 35.16 35.47 35.68 35.86 36.07 36.15 35.59 35.15 34.72 34.49 34.41 34.32 34.16 34.05 33.63
41.78 41.51 40.93 40.22 39.83 39.75 39.89 39.90 40.04 40.15 40.23 40.23 40.04 40.05 39.88 39.07 38.68 39.10 39.99 41.29 41.56 41.47 41.11 40.66 40.21 39.98 39.85 39.71 39.53 39.49 39.50 39.56 39.53 39.57 39.55 39.67 39.73 39.47 39.31 39.41 39.55 40.39 41.56 42.63 42.68 42.72 42.72 42.50 41.98 41.42 40.78 40.04 37.67 34.94 33.23 34.04 34.15 34.29 34.22 33.79 33.66 33.71 33.88 33.90 33.97 33.96 33.88 33.67 33.31
42.99 42.91 42.14 40.83 39.98 39.59 39.43 39.45 39.64 39.94 40.05 39.93 39.66 39.66 39.39 38.37 38.18 38.94 40.24 41.56 41.47 41.24 40.70 40.06 39.80 39.75 39.62 39.53 39.53 39.53 39.63 39.82 40.02 40.25 40.43 40.47 40.05 39.67 39.45 39.54 39.76 40.76 41.97 42.68 42.68 42.63 42.36 41.97 41.23 40.59 39.88 39.06 35.91 33.39 31.99 32.25 32.24 32.26 32.15 31.74 31.98 32.32 32.68 33.07 33.12 33.18 33.16 32.98 32.81
43.98 43.84 43.22 42.27 41.05 40.15 39.57 39.31 39.82 39.94 39.90 39.74 39.57 39.37 39.00 38.27 38.48 39.16 40.06 41.06 41.15 41.01 40.65 40.11 39.80 39.62 39.71 39.67 39.62 39.71 39.94 40.39 40.39 40.44 40.39 40.35 40.08 39.72 39.49 39.34 39.84 41.03 42.26 42.63 42.45 42.18 41.66 41.05 40.41 39.75 39.01 38.07 34.77 32.63 31.53 31.45 31.41 31.32 31.23 30.99 31.08 31.15 31.29 31.38 31.64 31.78 31.85 31.91 31.78
44.02 43.70 43.30 42.80 41.76 40.86 40.14 39.65 39.84 39.76 39.58 39.42 39.55 39.59 39.31 38.63 38.71 38.89 39.47 40.56 40.88 40.79 40.38 40.11 39.89 39.85 39.98 40.17 40.30 40.26 40.21 40.25 40.02 40.02 40.07 40.03 39.80 39.53 39.26 38.93 39.57 40.96 42.18 42.27 41.88 41.44 40.92 40.28 39.66 39.01 38.13 36.70 33.56 32.02 31.61 31.60 31.34 31.10 30.98 30.74 30.73 30.69 30.71 30.65 30.58 30.54 30.56 30.68 30.71
43.70 43.38 43.11 42.61 41.94 41.13 40.45 39.87 39.60 39.46 39.33 39.19 39.18 39.22 39.04 38.36 38.71 39.02 39.53 40.26 40.21 39.88 39.65 39.61 39.61 39.61 39.66 39.66 39.94 40.07 39.98 39.43 39.39 39.43 39.57 39.71 39.30 38.89 38.57 38.48 39.12 40.46 41.64 41.79 41.31 40.79 40.23 39.74 39.18 38.45 37.21 35.08 32.74 31.95 31.79 31.73 31.46 31.12 30.85 30.61 30.48 30.38 30.17 30.02 29.90 29.78 29.61 29.56 29.47
43.38 43.07 42.84 42.30 41.80 41.35 40.90 40.27 39.46 39.14 39.10 39.14 38.73 38.13 37.63 37.67 38.30 39.02 39.53 39.43 38.97 38.79 38.83 39.01 38.97 38.83 38.65 38.52 38.43 38.70 39.02 39.08 38.85 38.66 38.66 39.16 38.62 38.21 37.89 38.02 38.31 39.51 40.74 41.13 40.61 40.19 39.74 39.34 38.70 37.92 36.37 33.65 31.99 31.49 31.57 31.39 31.19 30.83 30.41 29.97 29.63 29.43 29.26 28.97 29.03 29.19 29.44 29.91 30.37
43.47 43.07 42.57 41.76 41.40 41.17 40.95 40.50 39.64 39.23 39.14 39.01 37.69 37.05 36.95 37.49 38.35 38.98 39.16 38.94 38.02 38.02 38.38 38.42 37.92 37.43 36.84 36.62 36.62 36.71 37.17 38.18 38.13 37.85 37.62 37.89 37.95 37.81 37.72 37.58 37.62 38.55 39.65 40.43 40.06 39.74 39.30 38.91 38.41 37.46 35.75 32.92 31.31 30.88 30.91 30.77 30.33 29.88 29.46 29.01 28.74 28.54 28.31 27.86 28.15 28.64 29.49 30.82 33.36
43.52 43.03 42.30 41.31 41.08 40.86 40.63 40.32 39.46 38.92 38.51 38.10 36.78 36.60 37.14 37.99 38.48 38.71 38.62 38.13 37.67 37.71 37.80 37.17 36.30 35.67 35.36 35.51 35.32 34.96 35.09 36.23 36.78 36.87 36.72 36.40 37.46 38.02 37.93 37.09 36.95 37.74 38.85 39.74 39.56 39.34 38.99 38.70 38.20 37.49 36.02 33.21 30.44 29.67 29.65 29.46 28.89 28.42 28.04 27.75 27.59 27.48 27.34 27.25 27.84 28.18 28.87 30.35 34.77
43.38 42.80 41.95 41.04 40.86 40.68 40.32 40.00 39.01 37.92 36.92 36.34 35.87 36.23 37.05 38.09 38.36 38.40 38.22 37.54 37.40 37.13 36.63 35.77 35.14 35.18 35.69 36.34 35.48 34.75 34.29 34.08 34.22 34.58 35.21 35.97 37.34 38.18 37.92 36.19 35.92 36.78 38.08 39.22 39.19 39.06 38.73 38.45 38.01 37.40 35.74 32.07 29.10 28.19 28.28 28.18 27.76 27.24 26.74 26.45 26.34 26.35 26.61 26.95 27.49 27.70 27.96 28.66 32.58
42.89 42.21 41.31 40.27 39.73 39.42 39.14 38.78 37.83 36.70 35.84 35.43 35.29 36.10 37.24 38.23 38.28 38.09 37.76 37.13 36.68 36.15 35.65 35.10 35.10 35.47 35.93 36.22 35.27 34.40 33.81 33.74 33.58 33.45 33.85 35.34 36.55 37.29 36.98 35.12 34.62 35.18 36.42 37.90 38.71 38.74 38.51 38.12 37.67 37.00 35.34 31.49 28.25 27.37 27.50 27.46 27.20 26.55 25.97 25.66 25.63 25.80 26.16 26.60 26.93 27.32 27.50 27.48 28.80
MSLP
1014.57 1014.69 1014.77 1014.85 1014.93 1015.01 1015.13 1015.25 1015.33 1015.41 1015.49 1015.57 1015.73 1015.85 1015.97 1016.09 1016.25 1016.37 1016.45 1016.57 1016.73 1016.81 1016.89 1017.01 1017.13 1017.29 1017.41 1017.45 1017.53 1017.65 1017.73 1017.81 1017.85 1017.89 1017.93 1018.01 1018.05 1018.05 1018.05 1018.01 1018.01 1018.01 1018.01 1018.01 1017.97 1017.89 1017.85 1017.85 1017.85 1017.93 1018.01 1018.05 1018.09 1018.13 1018.13 1018.13 1018.13 1018.13 1018.25 1018.37 1018.49 1018.57 1018.69 1018.77 1018.85 1018.89 1019.01 1019.13 1019.29
1014.69 1014.73 1014.81 1014.89 1015.01 1015.09 1015.17 1015.33 1015.45 1015.53 1015.61 1015.69 1015.77 1015.89 1016.01 1016.17 1016.29 1016.41 1016.53 1016.65 1016.73 1016.85 1017.01 1017.13 1017.29 1017.41 1017.49 1017.61 1017.73 1017.81 1017.89 1018.01 1018.01 1018.09 1018.13 1018.21 1018.25 1018.25 1018.25 1018.25 1018.25 1018.25 1018.21 1018.21 1018.13 1018.13 1018.09 1018.05 1018.09 1018.13 1018.17 1018.17 1018.25 1018.29 1018.29 1018.29 1018.29 1018.29 1018.37 1018.53 1018.57 1018.65 1018.73 1018.85 1018.89 1018.97 1019.01 1019.13 1019.29
1014.73 1014.85 1014.89 1015.01 1015.13 1015.21 1015.33 1015.45 1015.57 1015.69 1015.73 1015.81 1015.85 1016.01 1016.09 1016.21 1016.37 1016.49 1016.61 1016.73 1016.85 1016.97 1017.09 1017.21 1017.33 1017.45 1017.61 1017.73 1017.85 1017.93 1018.01 1018.13 1018.17 1018.25 1018.29 1018.37 1018.41 1018.41 1018.45 1018.41 1018.41 1018.41 1018.41 1018.41 1018.33 1018.29 1018.29 1018.29 1018.29 1018.29 1018.29 1018.37 1018.41 1018.49 1018.53 1018.53 1018.49 1018.53 1018.61 1018.73 1018.73 1018.77 1018.85 1019.01 1019.05 1019.05 1019.13 1019.25 1019.33
1014.81 1014.89 1015.01 1015.13 1015.21 1015.33 1015.45 1015.53 1015.69 1015.81 1015.85 1015.89 1016.01 1016.09 1016.21 1016.33 1016.45 1016.57 1016.73 1016.85 1017.01 1017.13 1017.21 1017.33 1017.45 1017.57 1017.73 1017.85 1017.97 1018.09 1018.17 1018.25 1018.29 1018.37 1018.41 1018.45 1018.53 1018.57 1018.57 1018.57 1018.53 1018.57 1018.57 1018.53 1018.49 1018.49 1018.45 1018.41 1018.41 1018.41 1018.45 1018.49 1018.57 1018.65 1018.73 1018.69 1018.73 1018.77 1018.89 1018.97 1018.97 1019.01 1019.05 1019.13 1019.21 1019.25 1019.29 1019.37 1019.45
1014.85 1014.97 1015.05 1015.17 1015.29 1015.41 1015.45 1015.57 1015.73 1015.85 1015.97 1016.01 1016.13 1016.29 1016.41 1016.53 1016.65 1016.77 1016.93 1017.05 1017.25 1017.37 1017.45 1017.49 1017.61 1017.73 1017.85 1017.97 1018.09 1018.21 1018.29 1018.33 1018.41 1018.45 1018.53 1018.57 1018.61 1018.65 1018.65 1018.65 1018.69 1018.69 1018.69 1018.69 1018.65 1018.61 1018.57 1018.57 1018.57 1018.61 1018.69 1018.69 1018.77 1018.85 1018.85 1018.85 1018.89 1019.01 1019.13 1019.17 1019.17 1019.21 1019.25 1019.29 1019.41 1019.45 1019.49 1019.53 1019.61
1015.01 1015.09 1015.13 1015.25 1015.29 1015.45 1015.57 1015.69 1015.81 1015.93 1016.01 1016.13 1016.33 1016.49 1016.61 1016.73 1016.81 1016.97 1017.13 1017.29 1017.45 1017.53 1017.61 1017.73 1017.81 1017.89 1018.01 1018.13 1018.21 1018.29 1018.33 1018.41 1018.49 1018.57 1018.57 1018.69 1018.73 1018.73 1018.77 1018.77 1018.81 1018.85 1018.81 1018.81 1018.77 1018.73 1018.73 1018.73 1018.77 1018.85 1018.89 1018.93 1018.93 1019.01 1019.01 1019.01 1019.05 1019.17 1019.29 1019.41 1019.45 1019.41 1019.45 1019.53 1019.57 1019.61 1019.61 1019.69 1019.77
1015.05 1015.13 1015.29 1015.37 1015.45 1015.53 1015.65 1015.77 1015.85 1016.01 1016.13 1016.29 1016.49 1016.65 1016.77 1016.89 1017.01 1017.13 1017.29 1017.45 1017.57 1017.65 1017.73 1017.85 1017.93 1018.01 1018.13 1018.21 1018.25 1018.29 1018.41 1018.49 1018.57 1018.61 1018.65 1018.73 1018.77 1018.81 1018.85 1018.85 1018.89 1018.93 1018.89 1018.89 1018.89 1018.89 1018.89 1018.89 1018.93 1019.01 1019.09 1019.09 1019.13 1019.13 1019.13 1019.17 1019.17 1019.29 1019.41 1019.57 1019.61 1019.61 1019.65 1019.69 1019.73 1019.73 1019.73 1019.81 1019.93
1015.13 1015.29 1015.37 1015.45 1015.57 1015.65 1015.77 1015.85 1015.97 1016.13 1016.29 1016.41 1016.57 1016.73 1016.85 1017.01 1017.13 1017.29 1017.41 1017.57 1017.69 1017.77 1017.85 1017.97 1018.01 1018.13 1018.17 1018.25 1018.29 1018.37 1018.41 1018.53 1018.57 1018.65 1018.73 1018.77 1018.81 1018.85 1018.89 1018.93 1018.93 1018.97 1019.01 1019.01 1019.01 1019.01 1019.01 1019.05 1019.09 1019.17 1019.21 1019.25 1019.29 1019.29 1019.29 1019.33 1019.37 1019.45 1019.57 1019.73 1019.81 1019.81 1019.81 1019.85 1019.85 1019.85 1019.89 1019.97 1020.01
1015.29 1015.41 1015.49 1015.57 1015.65 1015.73 1015.85 1015.97 1016.09 1016.21 1016.37 1016.57 1016.73 1016.85 1016.97 1017.09 1017.25 1017.41 1017.57 1017.69 1017.81 1017.89 1018.01 1018.05 1018.09 1018.13 1018.17 1018.25 1018.33 1018.41 1018.49 1018.57 1018.65 1018.73 1018.77 1018.85 1018.85 1018.89 1018.93 1019.01 1019.01 1019.01 1019.05 1019.09 1019.13 1019.13 1019.13 1019.17 1019.21 1019.29 1019.37 1019.41 1019.45 1019.45 1019.45 1019.49 1019.57 1019.61 1019.73 1019.85 1019.93 1019.97 1019.97 1019.97 1019.97 1019.97 1020.01 1020.09 1020.17
1015.45 1015.57 1015.61 1015.69 1015.77 1015.85 1015.93 1016.05 1016.17 1016.33 1016.53 1016.73 1016.85 1017.01 1017.13 1017.29 1017.41 1017.53 1017.69 1017.85 1017.89 1018.01 1018.09 1018.13 1018.13 1018.13 1018.17 1018.29 1018.41 1018.49 1018.57 1018.65 1018.73 1018.85 1018.85 1018.89 1018.93 1019.01 1019.01 1019.01 1019.01 1019.05 1019.13 1019.13 1019.17 1019.21 1019.25 1019.29 1019.33 1019.41 1019.45 1019.49 1019.53 1019.57 1019.61 1019.65 1019.73 1019.77 1019.85 1019.97 1020.05 1020.09 1020.13 1020.13 1020.13 1020.13 1020.17 1020.25 1020.37
1015.57 1015.65 1015.73 1015.81 1015.89 1016.01 1016.09 1016.25 1016.41 1016.53 1016.69 1016.85 1017.01 1017.17 1017.29 1017.45 1017.57 1017.69 1017.81 1017.85 1017.97 1018.05 1018.13 1018.13 1018.17 1018.21 1018.29 1018.37 1018.45 1018.57 1018.65 1018.73 1018.85 1018.85 1018.89 1018.97 1019.01 1019.01 1019.05 1019.05 1019.05 1019.09 1019.13 1019.13 1019.21 1019.29 1019.33 1019.37 1019.45 1019.45 1019.53 1019.57 1019.61 1019.69 1019.73 1019.81 1019.85 1019.89 1020.01 1020.09 1020.17 1020.21 1020.29 1020.29 1020.29 1020.29 1020.33 1020.41 1020.49
1015.65 1015.77 1015.85 1015.93 1016.01 1016.13 1016.25 1016.41 1016.57 1016.73 1016.85 1017.01 1017.17 1017.33 1017.45 1017.57 1017.69 1017.81 1017.89 1017.97 1018.05 1018.13 1018.17 1018.21 1018.25 1018.29 1018.41 1018.45 1018.53 1018.61 1018.69 1018.73 1018.81 1018.85 1018.89 1018.97 1019.01 1019.05 1019.09 1019.13 1019.09 1019.09 1019.13 1019.17 1019.21 1019.29 1019.41 1019.49 1019.53 1019.57 1019.61 1019.73 1019.77 1019.85 1019.89 1019.97 1020.01 1020.01 1020.13 1020.21 1020.29 1020.33 1020.41 1020.45 1020.49 1020.53 1020.53 1020.57 1020.61
1015.73 1015.85 1015.97 1016.05 1016.13 1016.25 1016.37 1016.53 1016.69 1016.85 1017.01 1017.17 1017.33 1017.45 1017.57 1017.73 1017.81 1017.85 1017.97 1018.05 1018.13 1018.21 1018.29 1018.29 1018.37 1018.41 1018.45 1018.57 1018.57 1018.65 1018.73 1018.77 1018.77 1018.85 1018.89 1018.97 1019.01 1019.09 1019.13 1019.13 1019.17 1019.17 1019.21 1019.29 1019.29 1019.41 1019.49 1019.61 1019.69 1019.73 1019.77 1019.85 1019.93 1020.01 1020.05 1020.09 1020.09 1020.13 1020.21 1020.29 1020.41 1020.45 1020.57 1020.61 1020.65 1020.69 1020.73 1020.73 1020.73
1015.85 1015.93 1016.05 1016.13 1016.25 1016.37 1016.53 1016.65 1016.85 1017.01 1017.17 1017.33 1017.45 1017.57 1017.73 1017.81 1017.89 1018.01 1018.09 1018.17 1018.25 1018.29 1018.37 1018.41 1018.45 1018.49 1018.57 1018.61 1018.65 1018.69 1018.73 1018.81 1018.81 1018.85 1018.93 1019.01 1019.05 1019.13 1019.21 1019.29 1019.29 1019.29 1019.37 1019.41 1019.45 1019.57 1019.65 1019.73 1019.81 1019.85 1019.93 1020.01 1020.09 1020.13 1020.17 1020.21 1020.25 1020.29 1020.33 1020.41 1020.49 1020.61 1020.73 1020.77 1020.81 1020.81 1020.85 1020.85 1020.85
1015.93 1016.01 1016.13 1016.21 1016.29 1016.45 1016.65 1016.81 1016.93 1017.13 1017.29 1017.45 1017.57 1017.69 1017.77 1017.89 1018.01 1018.09 1018.17 1018.25 1018.33 1018.41 1018.45 1018.53 1018.57 1018.57 1018.61 1018.65 1018.73 1018.73 1018.73 1018.77 1018.81 1018.85 1018.97 1019.01 1019.13 1019.21 1019.29 1019.37 1019.41 1019.45 1019.49 1019.57 1019.57 1019.69 1019.77 1019.85 1019.93 1020.01 1020.05 1020.13 1020.17 1020.29 1020.29 1020.37 1020.41 1020.41 1020.49 1020.57 1020.65 1020.73 1020.85 1020.93 1020.93 1020.93 1020.89 1020.89 1020.93
1015.93 1016.05 1016.13 1016.29 1016.41 1016.57 1016.73 1016.89 1017.01 1017.17 1017.33 1017.49 1017.65 1017.77 1017.85 1018.01 1018.09 1018.17 1018.25 1018.33 1018.41 1018.45 1018.53 1018.61 1018.69 1018.73 1018.73 1018.73 1018.73 1018.77 1018.77 1018.81 1018.85 1018.93 1019.01 1019.13 1019.21 1019.29 1019.37 1019.45 1019.53 1019.53 1019.57 1019.65 1019.73 1019.81 1019.89 1020.01 1020.05 1020.13 1020.13 1020.21 1020.29 1020.37 1020.41 1020.45 1020.57 1020.57 1020.65 1020.69 1020.77 1020.85 1020.97 1021.01 1021.01 1021.01 1020.97 1020.97 1021.01
1015.97 1016.09 1016.21 1016.33 1016.49 1016.69 1016.85 1017.01 1017.13 1017.29 1017.45 1017.57 1017.73 1017.85 1017.97 1018.05 1018.13 1018.21 1018.29 1018.37 1018.45 1018.53 1018.57 1018.69 1018.73 1018.77 1018.81 1018.85 1018.85 1018.85 1018.89 1018.93 1019.01 1019.09 1019.17 1019.25 1019.33 1019.45 1019.49 1019.57 1019.61 1019.65 1019.69 1019.73 1019.85 1019.93 1020.01 1020.09 1020.17 1020.21 1020.25 1020.29 1020.37 1020.45 1020.53 1020.57 1020.65 1020.73 1020.77 1020.85 1020.89 1020.97 1021.01 1021.05 1021.05 1021.05 1021.05 1021.05 1021.13
1016.01 1016.13 1016.29 1016.41 1016.57 1016.73 1016.89 1017.05 1017.21 1017.37 1017.49 1017.65 1017.77 1017.89 1018.01 1018.09 1018.17 1018.25 1018.29 1018.33 1018.45 1018.57 1018.61 1018.73 1018.77 1018.81 1018.85 1018.93 1019.01 1019.01 1019.05 1019.13 1019.21 1019.29 1019.33 1019.45 1019.49 1019.57 1019.61 1019.73 1019.73 1019.73 1019.81 1019.85 1019.93 1020.01 1020.13 1020.17 1020.29 1020.33 1020.37 1020.41 1020.45 1020.53 1020.57 1020.69 1020.73 1020.81 1020.85 1020.93 1021.01 1021.05 1021.09 1021.13 1021.13 1021.13 1021.13 1021.21 1021.29
1016.13 1016.25 1016.37 1016.49 1016.65 1016.81 1016.97 1017.13 1017.29 1017.45 1017.57 1017.69 1017.85 1017.93 1018.01 1018.13 1018.21 1018.29 1018.33 1018.41 1018.45 1018.53 1018.65 1018.73 1018.81 1018.85 1018.97 1019.01 1019.13 1019.17 1019.25 1019.29 1019.41 1019.45 1019.53 1019.57 1019.65 1019.73 1019.77 1019.85 1019.85 1019.85 1019.89 1019.97 1020.01 1020.09 1020.17 1020.25 1020.33 1020.41 1020.41 1020.49 1020.57 1020.65 1020.73 1020.77 1020.85 1020.93 1021.01 1021.05 1021.13 1021.13 1021.21 1021.21 1021.25 1021.29 1021.29 1021.33 1021.37
1016.21 1016.29 1016.41 1016.57 1016.73 1016.89 1017.01 1017.17 1017.33 1017.49 1017.57 1017.73 1017.85 1017.97 1018.05 1018.13 1018.25 1018.33 1018.41 1018.53 1018.57 1018.57 1018.69 1018.77 1018.85 1018.97 1019.05 1019.13 1019.25 1019.33 1019.41 1019.49 1019.53 1019.61 1019.73 1019.77 1019.85 1019.85 1019.93 1019.97 1020.01 1020.01 1020.01 1020.01 1020.09 1020.13 1020.21 1020.29 1020.37 1020.45 1020.53 1020.57 1020.65 1020.73 1020.81 1020.85 1020.97 1021.01 1021.09 1021.13 1021.21 1021.25 1021.29 1021.29 1021.37 1021.41 1021.41 1021.45 1021.45
1016.29 1016.37 1016.49 1016.65 1016.81 1016.97 1017.09 1017.25 1017.37 1017.49 1017.65 1017.77 1017.89 1018.01 1018.13 1018.21 1018.29 1018.41 1018.49 1018.57 1018.65 1018.69 1018.73 1018.85 1018.97 1019.05 1019.13 1019.25 1019.37 1019.45 1019.53 1019.61 1019.69 1019.73 1019.81 1019.89 1019.97 1020.01 1020.05 1020.09 1020.09 1020.13 1020.13 1020.13 1020.17 1020.21 1020.29 1020.37 1020.41 1020.53 1020.57 1020.65 1020.73 1020.77 1020.85 1020.93 1021.01 1021.13 1021.17 1021.25 1021.29 1021.37 1021.41 1021.41 1021.45 1021.49 1021.49 1021.53 1021.57
1016.29 1016.41 1016.57 1016.73 1016.85 1017.01 1017.13 1017.29 1017.41 1017.57 1017.69 1017.85 1017.97 1018.09 1018.21 1018.29 1018.41 1018.53 1018.61 1018.73 1018.73 1018.81 1018.89 1018.97 1019.05 1019.13 1019.25 1019.37 1019.45 1019.57 1019.65 1019.73 1019.81 1019.85 1019.93 1020.01 1020.09 1020.13 1020.17 1020.21 1020.29 1020.29 1020.29 1020.29 1020.29 1020.29 1020.33 1020.41 1020.49 1020.57 1020.61 1020.73 1020.77 1020.85 1020.89 1020.97 1021.09 1021.17 1021.25 1021.29 1021.37 1021.45 1021.45 1021.53 1021.53 1021.53 1021.53 1021.57 1021.57
1016.33 1016.45 1016.61 1016.73 1016.89 1017.05 1017.17 1017.33 1017.45 1017.61 1017.77 1017.93 1018.05 1018.17 1018.29 1018.41 1018.57 1018.65 1018.73 1018.85 1018.85 1018.97 1019.01 1019.09 1019.13 1019.25 1019.33 1019.45 1019.53 1019.61 1019.73 1019.85 1019.93 1020.01 1020.05 1020.13 1020.21 1020.29 1020.29 1020.33 1020.37 1020.37 1020.37 1020.37 1020.41 1020.41 1020.41 1020.45 1020.53 1020.57 1020.65 1020.73 1020.81 1020.85 1020.93 1021.01 1021.13 1021.17 1021.29 1021.37 1021.45 1021.49 1021.57 1021.57 1021.57 1021.57 1021.57 1021.57 1021.65
1016.37 1016.57 1016.69 1016.81 1016.97 1017.13 1017.29 1017.41 1017.57 1017.73 1017.85 1018.01 1018.13 1018.29 1018.41 1018.53 1018.65 1018.73 1018.85 1018.89 1019.01 1019.05 1019.13 1019.17 1019.25 1019.33 1019.45 1019.49 1019.57 1019.69 1019.81 1019.93 1020.01 1020.13 1020.17 1020.25 1020.29 1020.33 1020.37 1020.37 1020.41 1020.41 1020.41 1020.41 1020.45 1020.45 1020.49 1020.49 1020.57 1020.61 1020.65 1020.73 1020.81 1020.85 1020.97 1021.05 1021.13 1021.21 1021.29 1021.41 1021.49 1021.57 1021.57 1021.57 1021.57 1021.57 1021.61 1021.69 1021.77
1016.45 1016.57 1016.73 1016.89 1017.05 1017.17 1017.33 1017.49 1017.65 1017.77 1017.93 1018.01 1018.17 1018.29 1018.45 1018.57 1018.73 1018.81 1018.89 1019.01 1019.05 1019.09 1019.13 1019.25 1019.29 1019.41 1019.49 1019.57 1019.61 1019.73 1019.81 1019.93 1020.05 1020.13 1020.21 1020.29 1020.29 1020.33 1020.37 1020.41 1020.41 1020.45 1020.45 1020.45 1020.45 1020.45 1020.45 1020.53 1020.57 1020.57 1020.65 1020.73 1020.81 1020.85 1020.97 1021.05 1021.13 1021.25 1021.33 1021.45 1021.45 1021.53 1021.57 1021.57 1021.61 1021.65 1021.73 1021.81 1021.89
1016.53 1016.69 1016.85 1017.01 1017.13 1017.29 1017.45 1017.57 1017.69 1017.81 1017.97 1018.05 1018.21 1018.37 1018.49 1018.57 1018.73 1018.85 1018.93 1019.01 1019.09 1019.13 1019.21 1019.33 1019.41 1019.49 1019.57 1019.61 1019.73 1019.81 1019.85 1019.93 1020.05 1020.13 1020.21 1020.29 1020.29 1020.37 1020.41 1020.41 1020.41 1020.49 1020.53 1020.49 1020.45 1020.41 1020.45 1020.49 1020.57 1020.61 1020.65 1020.73 1020.81 1020.85 1021.01 1021.09 1021.17 1021.25 1021.33 1021.41 1021.49 1021.57 1021.61 1021.65 1021.73 1021.81 1021.89 1021.97 1022.05
1016.61 1016.77 1016.93 1017.05 1017.21 1017.33 1017.49 1017.57 1017.73 1017.85 1018.01 1018.09 1018.29 1018.41 1018.53 1018.61 1018.73 1018.85 1018.93 1019.01 1019.09 1019.17 1019.29 1019.41 1019.49 1019.57 1019.65 1019.73 1019.85 1019.85 1019.93 1020.01 1020.09 1020.17 1020.21 1020.29 1020.29 1020.33 1020.37 1020.41 1020.41 1020.49 1020.53 1020.49 1020.45 1020.41 1020.41 1020.45 1020.53 1020.57 1020.69 1020.73 1020.85 1020.89 1021.01 1021.09 1021.13 1021.29 1021.37 1021.45 1021.57 1021.69 1021.73 1021.77 1021.85 1021.93 1022.01 1022.09 1022.17
1016.69 1016.85 1016.97 1017.09 1017.29 1017.45 1017.57 1017.61 1017.77 1017.89 1018.01 1018.13 1018.29 1018.41 1018.53 1018.65 1018.73 1018.85 1018.93 1019.01 1019.05 1019.21 1019.37 1019.45 1019.57 1019.61 1019.73 1019.81 1019.89 1019.97 1020.01 1020.05 1020.13 1020.17 1020.21 1020.25 1020.25 1020.29 1020.33 1020.41 1020.41 1020.49 1020.53 1020.49 1020.41 1020.41 1020.41 1020.45 1020.49 1020.57 1020.69 1020.77 1020.85 1020.89 1021.01 1021.09 1021.25 1021.37 1021.53 1021.61 1021.73 1021.81 1021.85 1021.89 1022.01 1022.05 1022.13 1022.21 1022.29
1016.73 1016.85 1017.01 1017.17 1017.33 1017.45 1017.57 1017.73 1017.81 1017.93 1018.05 1018.17 1018.29 1018.41 1018.53 1018.65 1018.73 1018.85 1018.93 1019.01 1019.13 1019.29 1019.41 1019.53 1019.61 1019.73 1019.77 1019.85 1019.93 1020.01 1020.01 1020.13 1020.13 1020.17 1020.21 1020.25 1020.25 1020.29 1020.33 1020.41 1020.41 1020.45 1020.45 1020.45 1020.41 1020.41 1020.41 1020.45 1020.53 1020.57 1020.65 1020.77 1020.85 1020.97 1021.05 1021.17 1021.29 1021.45 1021.57 1021.73 1021.81 1021.93 1022.01 1022.05 1022.09 1022.13 1022.21 1022.29 1022.41
1016.73 1016.89 1017.05 1017.21 1017.37 1017.49 1017.61 1017.73 1017.85 1017.97 1018.05 1018.13 1018.25 1018.37 1018.49 1018.65 1018.77 1018.89 1019.01 1019.09 1019.17 1019.29 1019.45 1019.53 1019.61 1019.73 1019.77 1019.85 1019.93 1020.01 1020.05 1020.13 1020.13 1020.17 1020.21 1020.25 1020.25 1020.29 1020.33 1020.41 1020.41 1020.45 1020.41 1020.41 1020.41 1020.41 1020.45 1020.53 1020.57 1020.61 1020.73 1020.85 1020.97 1021.09 1021.17 1021.29 1021.41 1021.53 1021.65 1021.81 1021.89 1022.01 1022.05 1022.13 1022.21 1022.29 1022.29 1022.41 1022.45
1016.77 1016.93 1017.09 1017.25 1017.41 1017.53 1017.65 1017.73 1017.85 1017.93 1018.01 1018.13 1018.25 1018.37 1018.49 1018.69 1018.85 1018.97 1019.05 1019.13 1019.25 1019.33 1019.45 1019.53 1019.61 1019.73 1019.81 1019.89 1019.97 1020.01 1020.05 1020.13 1020.13 1020.17 1020.21 1020.21 1020.21 1020.29 1020.33 1020.41 1020.41 1020.45 1020.41 1020.37 1020.41 1020.45 1020.49 1020.57 1020.65 1020.73 1020.81 1020.97 1021.09 1021.17 1021.29 1021.41 1021.49 1021.61 1021.73 1021.85 1021.97 1022.05 1022.13 1022.21 1022.25 1022.29 1022.37 1022.45 1022.53
1016.81 1016.97 1017.13 1017.29 1017.45 1017.57 1017.65 1017.73 1017.85 1017.89 1018.01 1018.13 1018.25 1018.41 1018.57 1018.73 1018.85 1019.01 1019.09 1019.13 1019.25 1019.33 1019.45 1019.57 1019.65 1019.73 1019.77 1019.85 1019.97 1020.01 1020.05 1020.09 1020.13 1020.13 1020.17 1020.17 1020.25 1020.29 1020.37 1020.41 1020.41 1020.45 1020.41 1020.37 1020.41 1020.49 1020.53 1020.61 1020.73 1020.81 1020.93 1021.05 1021.21 1021.29 1021.41 1021.49 1021.57 1021.69 1021.81 1021.89 1022.01 1022.09 1022.13 1022.25 1022.29 1022.33 1022.41 1022.45 1022.57
1016.81 1016.97 1017.13 1017.29 1017.45 1017.57 1017.65 1017.73 1017.85 1017.89 1018.01 1018.13 1018.29 1018.41 1018.61 1018.77 1018.85 1019.01 1019.05 1019.13 1019.21 1019.33 1019.45 1019.53 1019.61 1019.69 1019.73 1019.85 1019.93 1020.01 1020.01 1020.01 1020.05 1020.09 1020.13 1020.13 1020.21 1020.29 1020.37 1020.41 1020.41 1020.45 1020.41 1020.41 1020.41 1020.53 1020.61 1020.73 1020.85 1020.97 1021.05 1021.13 1021.29 1021.45 1021.57 1021.57 1021.69 1021.77 1021.85 1022.01 1022.05 1022.09 1022.13 1022.25 1022.29 1022.33 1022.41 1022.45 1022.53
1016.85 1017.01 1017.13 1017.29 1017.45 1017.57 1017.69 1017.77 1017.85 1017.93 1018.05 1018.21 1018.33 1018.49 1018.61 1018.77 1018.85 1019.01 1019.05 1019.13 1019.25 1019.33 1019.45 1019.49 1019.57 1019.65 1019.73 1019.77 1019.85 1019.93 1019.97 1019.97 1020.01 1020.05 1020.13 1020.13 1020.21 1020.29 1020.33 1020.41 1020.41 1020.41 1020.41 1020.41 1020.49 1020.61 1020.73 1020.85 1020.97 1021.05 1021.13 1021.29 1021.45 1021.53 1021.61 1021.73 1021.81 1021.89 1022.01 1022.05 1022.09 1022.13 1022.17 1022.25 1022.29 1022.29 1022.41 1022.49 1022.53
1016.85 1017.01 1017.17 1017.33 1017.45 1017.57 1017.69 1017.77 1017.85 1017.97 1018.09 1018.29 1018.41 1018.53 1018.65 1018.77 1018.85 1019.01 1019.05 1019.13 1019.21 1019.33 1019.41 1019.49 1019.57 1019.61 1019.69 1019.77 1019.81 1019.85 1019.93 1020.01 1020.01 1020.05 1020.09 1020.17 1020.21 1020.29 1020.37 1020.41 1020.45 1020.41 1020.41 1020.45 1020.57 1020.73 1020.85 1020.97 1021.05 1021.13 1021.25 1021.41 1021.57 1021.65 1021.73 1021.85 1021.93 1022.01 1022.09 1022.13 1022.21 1022.25 1022.29 1022.29 1022.33 1022.37 1022.41 1022.49 1022.57
1016.85 1017.01 1017.13 1017.29 1017.45 1017.57 1017.69 1017.81 1017.89 1018.01 1018.13 1018.29 1018.41 1018.53 1018.65 1018.77 1018.85 1018.97 1019.05 1019.13 1019.25 1019.33 1019.45 1019.49 1019.57 1019.61 1019.69 1019.77 1019.81 1019.85 1019.89 1020.01 1020.05 1020.09 1020.13 1020.17 1020.25 1020.29 1020.41 1020.45 1020.49 1020.45 1020.45 1020.57 1020.69 1020.85 1020.97 1021.05 1021.13 1021.25 1021.37 1021.53 1021.61 1021.73 1021.81 1021.93 1022.01 1022.13 1022.17 1022.25 1022.29 1022.37 1022.41 1022.41 1022.45 1022.49 1022.53 1022.61 1022.73
1016.81 1016.97 1017.13 1017.29 1017.45 1017.57 1017.69 1017.77 1017.89 1018.01 1018.13 1018.25 1018.37 1018.49 1018.61 1018.73 1018.85 1018.97 1019.05 1019.13 1019.25 1019.37 1019.45 1019.45 1019.57 1019.61 1019.73 1019.77 1019.81 1019.85 1019.93 1020.01 1020.09 1020.13 1020.21 1020.21 1020.29 1020.37 1020.41 1020.49 1020.53 1020.57 1020.57 1020.69 1020.81 1020.93 1021.05 1021.13 1021.21 1021.29 1021.45 1021.57 1021.69 1021.77 1021.85 1022.01 1022.09 1022.17 1022.29 1022.37 1022.45 1022.49 1022.53 1022.57 1022.61 1022.65 1022.73 1022.73 1022.77
1016.73 1016.89 1017.09 1017.25 1017.41 1017.53 1017.65 1017.77 1017.85 1017.97 1018.09 1018.21 1018.37 1018.45 1018.57 1018.73 1018.85 1018.97 1019.05 1019.13 1019.25 1019.33 1019.45 1019.49 1019.61 1019.69 1019.73 1019.85 1019.85 1019.93 1020.01 1020.05 1020.13 1020.21 1020.29 1020.29 1020.37 1020.41 1020.45 1020.53 1020.61 1020.69 1020.73 1020.81 1020.89 1021.01 1021.13 1021.17 1021.29 1021.37 1021.45 1021.61 1021.73 1021.85 1021.93 1022.05 1022.17 1022.29 1022.37 1022.45 1022.57 1022.61 1022.69 1022.73 1022.73 1022.81 1022.85 1022.85 1022.85
1016.69 1016.85 1017.01 1017.17 1017.33 1017.49 1017.61 1017.73 1017.85 1017.93 1018.01 1018.13 1018.33 1018.41 1018.57 1018.69 1018.85 1018.97 1019.09 1019.17 1019.25 1019.29 1019.45 1019.57 1019.69 1019.77 1019.85 1019.89 1020.01 1020.05 1020.13 1020.17 1020.21 1020.29 1020.33 1020.37 1020.41 1020.41 1020.53 1020.61 1020.73 1020.77 1020.85 1020.93 1021.01 1021.13 1021.17 1021.25 1021.29 1021.37 1021.49 1021.61 1021.73 1021.85 1021.97 1022.09 1022.25 1022.37 1022.45 1022.57 1022.65 1022.73 1022.81 1022.85 1022.85 1022.89 1022.97 1022.97 1022.85
1016.61 1016.77 1016.93 1017.13 1017.29 1017.41 1017.57 1017.69 1017.77 1017.89 1018.01 1018.13 1018.29 1018.41 1018.57 1018.69 1018.85 1019.01 1019.13 1019.21 1019.29 1019.37 1019.49 1019.61 1019.73 1019.81 1019.85 1019.93 1020.01 1020.13 1020.25 1020.29 1020.37 1020.41 1020.41 1020.41 1020.45 1020.49 1020.57 1020.73 1020.81 1020.85 1020.97 1021.01 1021.13 1021.17 1021.21 1021.29 1021.29 1021.37 1021.53 1021.73 1021.77 1021.85 1022.01 1022.13 1022.29 1022.41 1022.57 1022.61 1022.73 1022.81 1022.89 1022.93 1022.97 1023.01 1023.05 1023.05 1023.01
1016.57 1016.73 1016.89 1017.05 1017.21 1017.33 1017.49 1017.61 1017.73 1017.85 1018.01 1018.13 1018.29 1018.41 1018.53 1018.65 1018.85 1019.01 1019.17 1019.29 1019.37 1019.45 1019.57 1019.65 1019.73 1019.81 1019.89 1019.97 1020.05 1020.17 1020.29 1020.37 1020.45 1020.49 1020.53 1020.53 1020.57 1020.57 1020.69 1020.81 1020.89 1021.01 1021.05 1021.13 1021.17 1021.21 1021.25 1021.29 1021.29 1021.41 1021.53 1021.73 1021.81 1021.89 1022.01 1022.13 1022.29 1022.45 1022.57 1022.65 1022.73 1022.85 1022.93 1023.01 1023.09 1023.09 1023.13 1023.13 1023.17
Wind_Speed
3 3 2 3 3 3 3 2 2 2 2 3 3 3 2 3 2 2 2 2 2 2 3 3 3 3 3 4 5 5 5 5 5 6 6 6 6 6 6 6 6 6 6 6 6 5 5 4 3 3 2 2 3 3 3 3 3 3 3 3 2 2 2 3 3 4 4 5 3
3 3 3 3 3 3 3 3 3 2 2 2 2 3 3 2 2 2 2 3 3 3 3 3 3 3 4 5 6 6 5 5 5 5 6 6 6 6 6 6 6 6 6 6 6 5 4 4 3 3 2 2 3 3 3 3 3 3 4 4 2 2 2 2 2 2 3 4 3
3 3 3 3 3 3 3 3 2 3 3 3 2 3 3 2 2 3 3 3 3 3 3 3 3 4 5 5 5 5 5 5 5 5 5 5 5 5 5 4 5 5 5 5 5 4 4 4 3 2 2 2 2 2 2 3 3 4 4 3 2 2 2 2 2 2 3 3 4
3 3 3 3 4 4 3 3 3 3 3 3 3 3 3 3 3 4 4 4 4 4 3 3 3 4 5 5 5 5 5 5 4 4 4 4 4 4 4 4 4 4 4 4 4 4 3 3 2 2 2 2 3 2 2 2 3 3 3 3 2 2 3 2 2 2 2 3 3
3 3 3 3 4 4 3 3 4 4 3 3 3 3 4 4 4 4 4 4 4 4 4 5 4 4 4 5 5 5 4 4 4 3 3 4 3 3 4 4 4 4 4 4 4 4 4 3 3 2 3 3 2 2 2 3 3 3 3 2 2 2 2 3 2 2 2 3 3
3 3 3 4 4 4 4 4 4 4 4 3 4 4 4 3 3 4 4 4 4 5 5 5 5 4 4 4 4 4 4 4 3 3 3 3 3 3 3 4 4 3 3 4 4 4 4 4 3 3 2 2 2 3 3 3 4 4 3 3 2 2 2 3 2 2 3 4 4
4 4 5 5 5 5 5 4 4 4 4 4 4 5 4 4 4 5 5 5 4 4 4 3 4 4 3 3 3 4 3 3 3 3 3 3 3 3 3 3 3 4 4 4 4 4 4 4 3 3 3 3 2 3 3 3 4 4 4 3 2 2 2 2 2 2 3 5 5
5 5 5 6 6 5 5 4 4 3 3 4 5 5 5 6 6 6 6 5 4 3 3 2 3 3 3 3 3 3 4 4 4 3 3 3 3 3 3 3 3 3 4 4 4 4 4 3 3 3 3 2 2 3 4 4 5 5 4 4 3 2 2 2 2 3 4 5 6
5 5 5 5 5 5 5 5 5 5 5 6 6 6 6 6 7 6 6 4 4 3 3 2 3 3 3 3 3 4 4 4 4 3 3 3 3 2 3 3 3 3 3 3 4 4 4 3 3 3 3 2 3 3 4 5 5 5 5 4 3 3 3 3 3 4 5 6 6
5 5 5 5 5 5 6 6 7 7 8 8 7 7 7 7 7 5 4 4 3 3 3 2 3 3 4 4 4 4 4 4 3 3 3 2 3 3 3 3 3 3 3 3 3 3 3 3 3 3 3 3 3 4 4 5 5 5 4 3 3 4 4 4 4 5 5 6 6
5 5 4 4 5 6 7 7 7 7 7 7 7 7 7 6 5 4 4 3 3 3 3 2 3 4 4 4 4 4 4 3 3 3 3 3 3 3 3 3 3 3 3 3 3 3 3 3 3 4 4 3 4 4 4 4 5 5 5 4 4 4 4 4 4 4 5 6 6
6 5 5 5 6 7 7 7 6 6 6 7 7 6 6 5 4 4 4 4 4 3 3 3 4 4 4 4 4 4 4 3 3 3 3 4 4 4 3 3 3 3 3 4 3 3 3 3 3 4 4 4 4 4 4 4 5 5 5 5 4 4 4 4 4 4 4 5 6
5 5 5 5 6 7 7 6 5 5 6 7 6 6 5 4 4 4 4 4 4 3 3 3 4 4 4 4 3 3 3 3 3 3 3 3 4 4 4 4 4 4 4 4 4 4 4 4 4 5 5 5 4 4 4 4 4 5 5 5 5 4 4 4 4 4 4 4 5
5 5 5 5 6 6 6 6 5 5 6 6 6 5 4 4 3 3 3 4 4 4 3 4 3 3 3 3 3 3 3 3 3 4 4 4 4 4 4 4 4 4 5 4 5 5 5 4 5 5 5 5 5 4 4 4 4 4 5 5 5 5 4 4 4 4 4 5 5
6 5 5 5 5 6 6 5 5 5 5 6 5 5 4 4 3 3 4 4 4 4 3 3 3 3 2 3 3 3 3 3 4 4 4 4 4 4 4 4 4 4 5 5 5 5 5 5 5 5 5 5 5 5 5 4 4 4 4 5 5 5 4 4 4 4 4 5 5
5 5 5 5 5 5 6 5 5 5 5 5 5 4 4 3 3 3 4 4 4 3 3 3 3 2 2 2 2 2 2 3 3 4 4 4 4 4 4 4 4 4 5 5 5 5 5 5 5 5 5 5 5 5 5 5 5 5 5 5 5 4 4 4 4 4 4 5 5
5 5 5 5 6 6 6 5 5 5 5 5 5 4 4 3 3 3 3 4 3 3 4 3 3 2 2 2 2 2 3 3 4 4 5 5 5 5 4 4 3 4 4 5 5 5 5 5 4 4 5 5 5 5 5 5 5 5 5 5 4 4 4 4 4 4 4 5 5
5 5 5 5 6 7 6 6 5 5 5 5 5 4 4 3 3 3 3 3 3 4 4 4 3 3 3 3 3 3 3 4 5 5 5 5 5 5 4 4 3 4 4 4 5 5 5 5 5 4 5 5 5 5 5 5 5 5 5 5 5 4 4 4 4 4 4 5 5
5 5 6 6 7 7 6 6 6 5 5 5 5 4 4 4 4 3 3 2 3 3 4 4 3 3 3 4 4 4 4 5 5 5 5 5 5 4 4 4 4 4 4 4 4 5 5 5 5 5 5 5 5 5 5 5 5 5 5 5 5 5 5 4 4 4 4 4 4
5 6 6 6 7 7 6 6 5 5 5 5 5 4 4 4 4 4 3 3 3 3 3 3 3 3 4 4 4 4 4 4 4 5 4 4 4 4 4 4 4 4 4 4 4 4 5 5 5 5 5 5 5 5 5 5 5 5 5 5 5 5 5 5 4 4 4 4 3
5 5 6 6 6 6 6 5 5 5 5 5 5 5 5 5 5 4 4 3 3 3 3 3 3 4 4 4 4 4 3 3 4 4 4 4 4 4 4 4 4 4 4 4 4 4 4 5 5 5 5 5 5 5 5 5 5 5 5 5 5 5 5 5 4 4 4 3 3
5 5 5 6 6 6 5 5 5 5 5 5 5 5 5 5 5 4 4 3 3 3 3 3 3 4 4 4 4 4 3 3 4 4 4 4 4 4 4 4 4 4 4 3 3 4 4 5 5 5 5 5 5 5 6 6 6 6 6 6 5 5 5 4 4 4 3 3 2
5 5 5 6 6 6 6 5 5 5 6 5 5 5 5 5 4 4 3 3 3 3 3 3 3 4 4 4 4 4 4 5 5 4 4 4 4 4 4 4 4 3 3 3 3 3 3 4 4 5 5 5 5 6 6 6 6 6 6 6 6 5 5 4 4 4 3 3 4
6 6 5 5 6 6 6 5 5 5 5 5 5 5 5 4 4 3 3 3 3 2 2 2 3 4 4 4 4 5 5 5 5 5 4 4 4 3 3 3 3 3 2 2 2 3 3 3 3 4 4 4 5 5 6 6 6 6 6 7 6 6 5 5 4 4 4 5 6
6 6 6 6 6 6 5 5 5 5 5 5 5 5 5 4 4 3 2 2 2 3 3 3 3 3 3 4 4 5 5 5 5 4 4 3 3 3 3 2 2 2 2 2 3 5 5 5 4 4 4 4 5 5 5 6 6 6 6 6 6 6 5 5 4 5 6 7 6
7 7 6 6 6 6 5 5 5 5 5 5 5 5 4 4 3 3 2 2 3 3 3 3 3 3 3 4 4 4 4 4 4 4 4 3 3 3 3 2 2 2 2 3 4 6 6 7 7 5 4 4 4 5 5 5 6 6 6 5 5 5 5 5 5 6 6 6 6
6 6 6 6 6 6 5 5 5 5 5 5 5 5 4 3 3 2 2 2 3 4 4 3 3 3 3 3 3 3 3 3 3 3 3 3 3 3 3 3 2 2 2 4 5 6 7 8 8 8 6 4 4 4 5 5 5 5 5 5 5 5 5 6 6 6 6 5 4
6 6 6 6 6 6 5 5 5 5 5 5 5 4 4 3 3 2 2 3 4 4 3 3 3 3 3 3 3 3 3 3 3 3 3 3 3 3 3 3 2 3 4 6 7 7 7 8 9 9 8 5 4 4 4 4 5 5 4 5 5 5 5 5 5 5 5 5 4
6 6 6 6 6 5 5 4 4 5 5 5 5 5 4 4 3 2 2 3 4 4 3 3 2 2 2 3 3 3 3 3 2 2 2 2 2 2 3 3 3 4 5 7 8 8 8 9 9 9 9 7 4 4 4 4 4 4 4 4 5 5 5 4 4 4 4 4 4
6 6 6 6 6 5 5 4 4 4 4 5 5 5 5 4 3 2 2 2 3 3 3 3 3 3 3 3 3 2 2 2 2 2 2 3 3 3 3 3 3 4 6 8 8 8 8 9 9 10 9 8 6 5 4 4 4 4 4 4 5 5 5 4 4 4 4 4 4
6 6 6 6 6 5 5 4 3 3 4 4 5 5 5 5 4 3 2 2 3 3 4 3 3 3 3 3 3 3 2 2 2 3 3 3 3 3 3 3 3 4 6 9 9 9 9 10 10 10 10 9 7 5 4 4 4 4 4 4 5 5 5 5 5 5 5 5 4
6 6 6 5 5 5 4 4 3 3 4 4 5 5 5 5 4 3 2 3 3 4 4 4 4 4 4 4 3 3 3 3 3 3 3 3 4 4 4 4 3 4 6 9 9 10 10 10 10 10 10 9 6 4 3 3 3 3 4 4 5 5 5 5 5 5 5 5 5
6 6 5 5 4 4 4 4 3 4 4 5 5 5 5 4 3 3 3 3 3 4 4 4 4 4 4 4 4 3 3 3 4 4 3 4 4 4 4 4 3 5 7 10 10 10 10 10 11 11 11 10 6 5 4 4 3 3 4 4 4 3 4 4 4 4 5 5 5
6 6 5 5 4 4 4 4 4 4 5 5 5 5 5 4 3 3 3 3 3 3 3 3 4 4 4 4 4 4 4 3 3 3 4 4 5 5 4 3 3 5 8 10 10 11 11 11 11 11 11 10 7 5 5 5 4 5 5 5 5 4 4 4 4 4 4 5 5
6 6 6 5 5 5 4 4 5 5 5 5 5 5 5 4 4 3 3 3 3 3 3 3 3 3 3 3 3 3 3 3 3 3 4 4 5 5 5 3 3 5 9 10 11 11 11 11 12 12 11 9 6 5 5 6 5 5 5 5 5 5 5 5 4 4 4 5 5
7 7 7 6 6 5 5 5 5 5 6 6 6 5 5 4 3 3 3 3 3 3 3 3 3 3 3 3 3 3 3 3 3 4 4 4 5 5 4 4 4 6 9 11 11 11 11 12 12 12 10 7 5 4 5 5 5 5 5 5 5 5 5 5 4 4 4 4 4
7 7 7 7 6 6 6 6 6 6 6 6 5 5 5 4 3 3 3 3 3 3 3 3 3 3 3 3 2 3 3 3 4 4 4 4 4 5 5 4 4 6 9 11 11 11 12 12 12 11 9 6 4 4 4 4 4 4 5 5 4 4 4 4 4 5 5 5 4
8 7 7 7 7 7 7 6 6 7 6 6 5 4 4 4 4 3 3 3 3 3 3 3 3 3 3 3 3 3 3 3 3 3 3 4 4 5 5 5 4 6 8 10 11 12 12 12 12 11 9 5 4 4 4 4 4 4 4 4 3 3 3 3 3 4 4 4 5
8 8 8 7 7 7 7 7 7 7 6 6 5 5 4 4 3 3 3 3 3 3 3 4 4 4 4 5 5 4 4 5 4 3 3 3 4 5 6 5 5 5 7 10 11 12 12 12 12 11 9 5 4 4 4 4 4 4 4 4 3 3 2 3 3 3 3 4 5
8 8 8 8 8 8 8 8 7 6 6 6 6 5 5 4 4 3 3 3 3 4 4 5 5 5 5 6 6 5 5 5 4 4 3 3 4 6 7 6 5 6 7 10 11 11 11 11 11 10 9 5 4 3 4 4 4 4 4 3 3 3 2 3 3 3 2 2 3
7 7 8 7 7 7 7 7 7 6 6 6 6 5 5 5 4 4 3 3 4 4 4 5 5 5 5 5 5 5 5 5 4 3 3 3 4 6 7 5 5 5 6 8 10 11 10 10 10 10 8 5 4 3 4 4 4 4 4 3 3 3 3 3 2 2 2 1 1
Wind_Direction
104 101 98 93 94 95 93 86 78 80 91 103 104 103 99 97 97 94 91 88 87 83 78 74 75 71 63 54 51 47 43 37 34 32 30 26 22 18 13 9 6 2 358 355 352 350 352 1 25 39 42 35 39 37 28 13 37 69 97 108 123 142 160 177 188 190 186 183 174
103 100 92 86 85 86 84 81 72 68 69 80 93 98 100 101 102 100 94 90 87 85 84 82 79 74 67 59 55 52 47 39 37 36 34 31 26 21 16 13 10 7 3 358 356 355 359 14 31 42 48 45 52 46 31 11 28 51 67 70 72 78 87 100 111 135 150 154 144
108 102 96 92 93 93 93 91 87 80 76 72 77 81 83 84 83 84 84 80 77 78 80 83 83 80 75 67 62 57 51 44 42 42 42 38 32 26 20 18 16 12 7 1 1 3 9 20 33 45 53 56 62 56 38 19 35 50 59 56 57 66 75 80 80 93 110 124 126
114 111 109 111 112 111 111 110 105 97 88 79 72 70 69 69 70 72 73 69 64 62 61 63 71 74 74 72 69 64 57 50 45 46 50 49 40 32 25 24 23 19 13 9 11 13 16 25 38 47 51 55 65 64 55 44 55 58 56 44 52 66 77 80 73 79 94 107 109
118 118 121 123 121 117 114 112 108 102 94 85 78 75 73 74 76 76 75 70 64 59 57 57 64 67 71 75 77 75 70 61 52 51 53 54 47 40 34 31 31 26 19 16 20 22 26 32 43 46 46 50 59 60 62 68 77 76 67 47 46 56 67 70 65 74 89 98 93
112 106 102 99 99 98 98 101 103 102 99 93 90 87 86 84 83 84 84 85 79 72 68 66 71 72 73 77 80 82 80 75 67 63 61 61 54 49 45 43 39 34 28 25 28 30 34 39 47 50 47 53 57 56 59 73 87 88 80 60 48 50 60 66 66 78 92 99 100
98 93 90 89 89 90 92 94 98 100 101 101 102 103 101 97 92 90 91 91 86 81 76 77 81 84 86 88 88 89 88 85 76 69 66 66 62 60 58 54 49 43 38 34 35 37 41 48 55 53 48 49 53 51 53 68 85 89 84 71 55 52 59 68 70 82 92 98 101
89 90 91 92 94 95 97 99 100 100 99 96 100 102 102 98 93 90 87 86 85 85 84 85 93 100 105 108 106 104 100 93 82 73 68 68 68 70 72 69 62 56 49 45 44 46 50 56 59 57 51 47 51 51 54 64 76 81 83 76 64 55 56 67 72 82 90 95 95
89 89 90 91 94 96 97 95 92 89 84 81 79 79 81 84 85 85 84 85 87 88 89 93 101 106 107 102 98 94 91 88 81 74 67 62 66 72 79 80 74 68 62 56 54 55 57 63 64 61 57 56 57 58 62 68 77 81 82 79 71 61 57 62 71 80 86 90 88
101 97 94 92 91 89 85 81 80 80 81 79 74 71 70 73 77 81 86 91 90 89 89 96 99 96 89 83 81 80 82 85 86 83 79 72 67 68 73 78 79 79 77 72 66 63 64 70 72 71 68 65 66 67 69 73 80 83 83 80 77 72 68 64 72 79 84 89 90
108 105 102 99 94 88 84 81 81 83 84 85 80 76 74 74 78 83 89 92 89 89 90 93 91 87 84 82 84 89 96 104 110 113 110 102 90 81 76 74 76 81 84 86 82 75 70 70 76 77 74 67 66 69 72 77 84 86 87 85 84 81 77 69 71 78 87 95 97
108 107 104 102 98 94 91 90 89 88 87 86 83 80 79 80 84 89 92 91 90 88 84 79 81 84 86 90 96 103 111 120 126 127 124 116 108 100 91 81 74 72 73 76 77 75 72 68 73 75 74 69 65 65 71 79 88 92 93 92 89 86 84 80 79 83 94 103 105
109 108 106 104 101 98 96 95 94 91 89 87 86 85 85 85 87 90 92 92 90 85 76 68 72 79 88 98 104 110 116 122 122 119 113 109 105 99 92 83 75 68 65 64 67 70 72 70 69 72 75 74 69 66 67 75 86 93 97 98 94 92 92 94 95 99 103 107 107
111 111 110 107 103 100 98 97 95 94 94 93 94 94 94 92 90 90 90 92 91 87 81 74 74 82 95 107 113 118 122 124 120 114 108 103 99 94 88 82 77 73 70 68 70 74 77 77 76 77 79 81 78 73 70 72 81 89 95 99 99 99 99 102 107 110 111 109 105
112 112 111 107 103 100 99 98 98 99 99 100 102 103 101 99 96 93 92 93 93 92 90 88 88 91 96 102 110 118 124 125 121 117 111 105 98 93 89 85 83 82 82 80 78 77 79 81 83 85 87 88 86 82 79 79 83 87 93 98 101 104 106 110 112 114 114 112 106
115 114 111 106 102 100 99 99 102 103 105 106 107 106 105 104 101 99 99 101 100 100 100 101 99 91 82 79 90 100 107 108 101 97 94 92 88 86 85 84 87 90 93 93 89 86 82 81 84 89 92 94 93 91 89 89 90 92 94 98 102 106 111 114 114 113 112 109 108
118 117 113 107 104 102 102 102 104 106 108 109 109 108 108 108 106 105 108 113 115 116 115 113 109 100 88 76 67 68 73 75 72 72 75 78 79 79 78 76 79 87 95 100 99 97 93 89 89 91 94 97 97 97 96 96 96 96 96 98 100 103 106 109 108 107 105 104 106
119 117 113 108 108 107 106 106 106 108 110 111 112 113 114 115 113 112 112 116 120 123 123 122 119 111 100 86 63 54 55 62 65 67 69 72 75 76 75 72 71 78 89 99 105 108 108 106 103 100 99 98 99 99 98 98 97 96 95 96 96 95 95 95 95 97 99 101 105
119 115 111 109 110 110 110 109 109 110 111 114 115 117 117 117 114 110 105 99 102 111 117 120 115 106 95 84 70 63 61 67 70 71 70 71 73 76 76 74 72 75 83 95 105 112 116 117 114 110 107 105 103 102 100 99 98 96 94 93 92 91 89 87 86 89 94 99 104
119 115 113 111 112 112 112 112 112 112 113 113 112 112 110 108 103 99 93 83 78 85 97 106 105 100 94 86 79 74 70 74 78 79 78 76 77 79 79 78 76 77 80 87 96 104 110 114 114 114 113 112 111 108 106 103 101 98 96 93 92 91 91 90 89 90 93 96 102
120 117 115 114 114 114 115 116 115 113 111 109 106 103 100 94 90 87 83 76 68 67 74 86 96 99 98 93 88 82 76 74 80 83 84 82 80 78 77 75 74 75 79 85 93 101 108 114 118 120 120 120 119 117 115 112 109 105 103 101 99 98 98 99 100 102 104 109 113
124 120 117 116 115 115 115 114 112 110 108 106 103 99 94 89 86 83 78 71 66 64 65 70 81 89 93 96 95 89 79 69 68 71 74 75 75 73 72 73 72 75 77 83 92 103 112 119 123 125 126 126 126 125 122 120 117 114 112 111 109 109 109 112 116 120 125 126 114
125 121 117 116 115 115 114 111 109 107 106 105 102 99 95 92 88 83 78 72 70 68 68 68 75 81 87 94 97 94 86 75 68 65 65 68 73 76 78 80 81 83 85 87 92 103 113 120 124 127 129 130 129 128 126 124 123 121 120 119 119 121 124 129 135 136 128 107 83
125 121 119 117 116 116 115 112 111 109 109 108 106 104 101 97 92 87 82 81 83 83 80 76 80 85 89 94 98 99 97 92 86 80 78 79 85 89 93 95 97 98 99 102 117 126 128 126 126 129 132 133 132 129 128 127 127 127 127 128 130 135 139 145 143 130 108 88 79
126 123 121 119 120 119 118 117 116 115 115 114 111 109 106 104 100 97 97 101 106 102 93 82 84 88 92 93 96 100 105 108 107 106 104 101 106 111 114 118 114 111 114 127 145 146 144 140 138 137 136 136 133 130 129 129 130 133 134 137 139 140 138 131 116 102 92 88 86
126 125 124 124 123 122 122 123 123 122 120 116 112 110 107 106 105 108 114 122 117 106 96 87 87 89 90 88 92 97 104 110 116 121 127 132 136 139 139 134 122 114 126 152 161 161 157 151 147 144 140 135 134 132 131 132 135 137 137 137 133 125 114 104 94 91 90 92 94
127 127 127 127 125 126 126 127 125 122 119 116 112 110 108 107 109 117 125 129 116 106 99 93 89 86 85 86 90 96 102 109 123 133 142 151 158 158 152 136 127 129 151 171 174 172 166 158 151 146 142 134 135 136 136 136 136 132 127 120 111 104 101 101 101 102 102 102 102
130 130 129 127 127 127 126 123 121 120 119 118 116 115 113 112 115 124 131 129 116 109 101 94 88 85 86 91 95 101 109 120 133 144 154 162 166 159 145 132 133 149 168 179 179 175 167 159 152 147 143 136 129 127 128 126 123 117 111 107 105 104 104 106 108 110 110 109 101
134 132 130 130 129 127 124 121 123 125 126 125 124 122 119 114 113 118 125 125 118 114 109 103 98 99 105 110 112 116 123 134 144 151 158 167 164 147 131 126 137 160 175 181 178 172 164 155 150 145 140 128 111 104 109 112 112 110 109 110 111 113 114 115 116 116 113 109 100
132 131 131 130 129 127 126 128 131 132 131 130 128 124 120 114 109 103 103 111 118 120 122 121 119 120 122 125 127 133 140 150 154 159 166 173 163 146 133 132 148 171 180 180 174 167 159 152 147 141 132 118 102 96 101 107 109 113 116 118 122 124 127 130 129 127 122 116 109
129 128 128 129 128 130 132 135 137 137 136 133 129 124 119 118 118 117 115 116 122 126 129 129 132 133 134 134 138 147 157 166 170 177 181 181 164 148 139 143 159 178 183 177 168 161 155 149 142 135 126 117 106 100 103 110 114 119 125 130 134 137 140 142 142 140 135 128 124
127 127 127 127 130 133 136 140 143 143 139 133 126 121 120 123 128 132 135 132 131 134 137 141 143 144 144 145 152 161 171 181 188 190 186 174 155 145 143 151 166 181 182 173 163 156 149 142 135 129 123 116 105 98 98 104 108 113 118 125 134 142 147 150 151 148 144 139 136
130 130 130 131 134 135 137 140 142 138 130 122 119 119 122 127 132 137 140 140 141 145 149 153 154 154 155 158 165 172 182 191 193 187 175 155 143 139 143 152 168 179 177 166 156 148 141 134 129 125 120 112 100 91 87 88 88 88 88 91 99 109 121 131 136 139 139 137 133
139 138 139 141 139 138 136 136 133 126 119 115 117 121 127 132 137 141 144 145 146 149 153 157 158 159 160 162 169 177 183 187 179 164 150 139 137 138 142 150 167 174 168 157 148 141 136 132 129 125 120 110 101 93 89 88 85 83 81 77 75 74 76 82 92 104 112 117 117
149 148 149 150 148 144 140 136 131 126 123 123 125 130 134 139 142 145 147 147 145 146 148 152 154 155 157 162 167 169 168 161 147 137 134 132 134 136 139 144 158 163 158 148 142 138 136 136 133 129 122 113 105 98 95 95 94 92 90 86 79 73 68 65 66 72 82 93 101
157 157 157 156 154 152 148 145 139 137 136 137 138 140 142 143 144 144 144 144 143 144 147 149 150 152 155 157 157 153 146 137 130 127 128 130 131 133 134 139 147 151 149 141 140 140 140 141 138 133 126 117 109 105 104 103 103 101 98 92 85 77 70 64 60 58 61 69 83
162 161 160 159 159 159 158 155 152 149 149 149 148 147 146 144 142 142 143 143 144 148 150 148 145 142 139 134 127 123 122 125 124 125 126 128 128 129 130 132 135 140 141 139 141 142 144 144 141 136 130 121 118 115 114 112 111 106 101 96 91 84 77 69 63 58 56 56 65
165 164 162 161 162 164 165 164 162 160 158 155 152 148 145 142 141 141 144 147 148 149 146 135 121 112 105 99 94 90 90 97 105 113 121 125 127 127 127 127 126 131 136 140 143 145 146 146 143 140 137 130 129 126 124 121 117 112 109 105 102 94 84 75 70 65 61 58 66
166 165 163 162 165 167 169 170 169 165 160 154 149 146 143 138 139 141 143 143 139 134 128 118 111 105 102 97 91 82 72 67 70 80 99 119 126 126 124 122 121 128 136 144 147 149 149 149 146 145 142 135 133 130 127 123 120 118 117 116 114 105 93 83 80 76 70 68 76
165 164 163 165 168 170 172 173 170 164 157 149 146 143 140 137 136 134 131 123 117 115 116 116 116 113 109 105 100 92 83 70 60 58 70 102 119 123 122 118 120 128 139 148 151 153 153 152 150 147 144 132 129 126 124 122 122 123 124 126 124 118 107 96 95 91 85 73 76
163 163 164 166 168 171 171 171 165 158 151 146 146 143 140 135 133 129 124 117 115 117 119 121 120 117 114 110 107 103 97 87 73 64 65 87 111 119 120 117 121 129 141 152 156 157 157 156 151 148 143 130 125 123 123 123 126 129 134 137 134 128 121 114 109 105 103 92 70